Skip Page Navigation
NASA JPL Caltech
NASA Logo - Jet Propulsion Laboratory + View the NASA Portal
+ Near-Earth Object (NEO) Program
Search JPL
JPL Home Earth Solar System Stars & Galaxies Technology
JPL Solar System Dynamics
BODIES ORBITS EPHEMERIDES TOOLS PHYSICAL DATA DISCOVERY FAQ SITE MAP
JPL Small-Body Database Browser
Search: [ help ]  
18099 Flamini (2000 LD27)
Classification: Main-belt Asteroid          SPK-ID: 2018099
Ephemeris | Orbit Diagram | Orbital Elements | Physical Parameters | Discovery Circumstances | Close-Approach Data ]

[ show orbit diagram ]
Orbital Elements at Epoch 2457000.5 (2014-Dec-09.0) TDB
Reference: JPL 7 (heliocentric ecliptic J2000)
 Element Value Uncertainty (1-sigma)   Units 
e .1332036062756629 8.2507e-08  
a 2.989520740046235 3.7763e-08 AU
q 2.591305796436188 2.4428e-07 AU
i 11.27333170827507 7.2959e-06 deg
node 102.2841949630314 3.8761e-05 deg
peri 269.1717985361477 4.7411e-05 deg
M 238.2288581439512 2.8819e-05 deg
tp 2457639.120213514828
(2016-Sep-07.62021351)
0.00015564 JED
period 1887.994752788943
5.17
3.5773e-05
9.794e-08
d
yr
n .1906784960435978 3.6129e-09 deg/d
Q 3.387735683656282 4.2793e-08 AU
  Orbit Determination Parameters
   # obs. used (total)      714  
   data-arc span      8221 days (22.51 yr)  
   first obs. used      1991-12-28  
   last obs. used      2014-07-01  
   planetary ephem.      DE431  
   SB-pert. ephem.      SB431-BIG16  
   condition code      0  
   fit RMS      .58553  
   data source      ORB  
   producer      Otto Matic  
   solution date      2014-Jul-14 12:40:12  

Additional Information
 Earth MOID = 1.62218 AU 
 T_jup = 3.214 
[ show covariance matrix ]

Ephemeris | Orbit Diagram | Orbital Elements | Physical Parameters | Discovery Circumstances | Close-Approach Data ]

Physical Parameter Table
Parameter Symbol Value Units Sigma Reference Notes
absolute magnitude H 13.6 mag n/a MPO263509  

18099 Flamini           Discovered 2000 June 6 by the Lowell Observatory Near-Earth Object Search at the Anderson Mesa Station.
Enrico Flamini (b. 1951), of the Italian Space Agency (ASI), is co-investigator of the Huygens Atmospheric structure instrument and ASI manager of the entire Cassini/Huygens mission.
NOTE: some special characters may not display properly (any characters within {} are an attempt to place the proper accent above a character)
Reference: 20050721/MPCPages.arcLast Updated: 2005-07-21

[ show close-approach data ]
Alternate Designations
 2000 LD27 = 1998 FQ91 = 1999 JQ96 
Ephemeris | Orbit Diagram | Orbital Elements | Physical Parameters | Discovery Circumstances | Close-Approach Data ]
ABOUT SSD CREDITS/AWARDS PRIVACY/COPYRIGHT GLOSSARY LINKS
FirstGov 2014-Sep-03 07:02 UT
(server date/time)  
NASA Home Page
Site Manager:   Donald K. Yeomans
Webmaster  Alan B. Chamberlin